STARLINK-11511, 62468

Orbit data source: Space-Track

STARLINK-11511, 62468 is a payload satellite owned by SpaceX/Seattle (US) in LEO that was launched on Tue, 31 Dec 2024 UTC via an FALCON 9 launch vehicle from the Air Force Eastern Test Range (AFETR). Payload-class satellites include a variety of spacecraft equipped with specific instruments for various scientific and technological missions. These include communications satellites like Starlink; space stations such as the ISS; scientific satellites like the Hubble; Earth observation satellites from companies like Planet Labs, Umbra, and HawkEye 360; GPS; miniature CubeSats for education and research; and military/defense satellites.

Loading next visibility...
Identifier
62468, 2024-254G
Orbit
LEO
Country
Flag of USUS
Related business
Manufacturer
SpaceX/Seattle
Mission
Operational Commercial Communications
Bus & Motor
STARLINK V2MD, Unknown motor
Mass
960 kg wet, ~910 kg dry
Launch date (UTC)
2024-12-31 (2 years ago)
Launch vehicle
FALCON 9
Launch site
Air Force Eastern Test Range (AFETR)
Object type
Payload
Rocket body
Debris
Shape & HBR
Box + 2 Pan, 18.1 m
Radar Cross Section
36.964 m², Large (>1 m²)

Expand to show TLE details & history
Last TLE update: 11 hours ago

TLE from 11 hours ago
0 STARLINK-11511
1 62468U 24254G   26257.99331857  .00217751  00000-0  16555-2 0  9997
2 62468  43.0003 161.9336 0002146 278.3509  81.7115 15.70853156 99174
Epoch: 2026-09-14T23:50Z
TLE epoch observation values (Epoch: 2026-09-14T23:50:22.724Z)
Latitude
-0.00004°
Longitude
170.37323°
Altitude
356.021 km
Speed
7.698 km/s
True Right ascension
10h 47m 44s
True Declination
0° 00' 00"
Sunlit
Object was in daylight at epoch
Visualization orbit readout
Latitude
Unknown
Longitude
Unknown
Altitude
Unknown
Speed
Unknown
Apparent Right ascension
Unknown
Apparent Declination
Unknown
Sunlit
N/A
Visualization observer readout
Local Sidereal Time
03:45:06
Azimuth
Unknown
Elevation
Unknown
Doppler factor
Unknown
Orbital elements
Apogee altitude
359.885 km
Perigee altitude
356.993 km
Semi-major axis
6,736.576 km
Eccentricity
0.00021
Inclination
43.0003°
RAAN
161.9336°
Arg. of periapsis
278.3509°
True anomaly
81.73584°
Mean anomaly
81.7115°
Eccentric anomaly
81.72367°
Mean motion
3.9254 °/min
Orbital period
91.71 mins
BSTAR
0.0016555
Loading maneuver chart data...
Computing Atmospheric mass density...
Loading historical data...
Loading historical data...
Loading historical data...
Loading historical data...
Loading historical data...
Loading historical data...
Loading historical data...

Documentation

Showing up to 5 results
|